Location: Killam
(52.7910°N, 111.8608°W)
Time: 04:47:57
(UTC+00:00)

Transit 2A - Pass Details

Date: 18 February 2026
Orbit: 590 x 954 km, 66.7° (Epoch: 14 March)

Event Time Altitude Azimuth Distance (km) Brightness Sun altitude
Rises 05:08:52 0° 318° (NW) 3,593 10.4 -38.8°
Reaches altitude 10° 05:11:36 10° 312° (NW) 2,612 9.4 -39.1°
Enters shadow 05:14:43 27° 292° (WNW) 1,635 8.1 -39.5°
